User: anonymous   Login
Location: NJAA Observatory
(40.6819°N, 74.8979°W)
Time: 14:16:26
(UTC-05:00)
Language:

Landsat 5 - Orbit

View from above orbital plane
View from above orbital plane
View from above satellite
View from above satellite

Ground track
Ground track

The orbit data is extracted from the following two-line orbital elements,

1 14780U 84021A   17019.17287475  .00000386  00000-0  42147-4 0  9993
2 14780  98.0304 128.3695 0089956 300.3704  58.8642 14.91370243753668
Epoch (UTC): 19 January 2017 04:08:56
Eccentricity: 0.0089956
inclination: 98.0304°
perigee height: 531 km
apogee height: 656 km
right ascension of ascending node: 128.3695°
argument of perigee: 300.3704°
revolutions per day: 14.91370243
mean anomaly at epoch: 58.8642°
orbit number at epoch: 75366

The dashed part of the orbit path shows where the satellite is in the earth's shadow,  

DLR